This is the latest recevied weather packets stored in our database for station/object W0BJ. If no packets are shown the sender has not sent any weather packets the latest 10 day(s).
| Time | Temp. | Humidity | Pressure | Rain* | Wind** | Luminosity | Snow |
|---|---|---|---|---|---|---|---|
| 1778120601 | 10° C | 61% | 1019.8 hPa | 0 mm | - | - | - |
| 1778120136 | 10.56° C | 59% | 1019.6 hPa | 0 mm | - | - | - |
| 1778119700 | 10.56° C | 60% | 1019.7 hPa | 0 mm | - | - | - |
| 1778119536 | 10.56° C | 59% | 1019.6 hPa | 0 mm | - | - | - |
| 1778118936 | 11.11° C | 57% | 1019.4 hPa | 0 mm | - | - | - |
| 1778118802 | 11.11° C | 57% | 1019.4 hPa | 0 mm | - | - | - |
| 1778118335 | 11.11° C | 55% | 1019.3 hPa | 0 mm | - | - | - |
| 1778117901 | 11.67° C | 55% | 1019.2 hPa | 0 mm | - | - | - |
| 1778117737 | 11.67° C | 54% | 1019.2 hPa | 0 mm | - | - | - |
| 1778117137 | 12.22° C | 56% | 1018.9 hPa | 0 mm | - | - | - |
| 1778117001 | 12.78° C | 53% | 1018.9 hPa | 0 mm | - | - | - |
| 1778116536 | 12.78° C | 49% | 1018.6 hPa | 0 mm | - | - | - |
| 1778116102 | 13.33° C | 46% | 1018.5 hPa | 0 mm | - | - | - |
| 1778115936 | 13.33° C | 44% | 1018.4 hPa | 0 mm | - | - | - |
| 1778115336 | 13.89° C | 44% | 1018.6 hPa | 0 mm | - | - | - |
| 1778115202 | 13.89° C | 45% | 1018.5 hPa | 0 mm | - | - | - |
| 1778114735 | 13.89° C | 44% | 1018.4 hPa | 0 mm | - | - | - |
| 1778114301 | 14.44° C | 46% | 1018.6 hPa | 0 mm | - | - | - |
| 1778114137 | 14.44° C | 46% | 1018.4 hPa | 0 mm | - | - | - |
| 1778113536 | 15° C | 42% | 1018.5 hPa | 0 mm | - | - | - |
| 1778113400 | 15° C | 43% | 1018.5 hPa | 0 mm | - | - | - |
| 1778112936 | 15° C | 41% | 1018.4 hPa | 0 mm | - | - | - |
| 1778112502 | 15° C | 41% | 1018.3 hPa | 0 mm | - | - | - |
| 1778112336 | 15° C | 41% | 1018.2 hPa | 0 mm | - | - | - |
| 1778111736 | 15° C | 41% | 1018.3 hPa | 0 mm | - | - | - |
* Rain latest hour (hover to see other rain measurements)
** Current wind speed in m/s (hover to see current wind gust speed)